Flag for Canada Weather past 2 weeks in Stephenville, Newfoundland and Labrador, Canada

Now
28 °F

Passing clouds.


Feels Like: 25 °F
Forecast: 18 / 34 °F
Wind: 3 mph from Northeast

Location: Stephenville

Current Time: Mar 30, 2015 at 11:32:35 AM

Latest Report: Mar 30, 2015 at 10:30 AM


Visibility: 15 mi

Pressure: 30.03 "Hg

Humidity: 43%

Dew point: 9 °F

Location of StephenvilleLocation

Historic Weather in Stephenville — Graph

°F

Stephenville temperature yesterday

Maximum temperature yesterday: 30 °F (at 2:30 AM)
Minimum temperature yesterday: 27 °F (at 8:30 AM)
Average temperature yesterday: 28 °F

Past Weeks' High & Low Weather Summary

 TemperatureHumidityPressure
High37 °F (Mar 22, 12:30 PM)100% (Mar 22, 8:30 AM)30.27 "Hg (Mar 22, 8:30 AM)
Low5 °F (Mar 25, 7:30 AM)43% (Mar 30, 10:30 AM)28.74 "Hg (Mar 22, 2:16 PM)
Average26 °F79%29.65 "Hg
* Reported Mar 15 10:30 AM — Mar 30 10:30 AM, Stephenville, Weather by CustomWeather, © 2015

Note: Actual official high and low records may vary slightly from our data, if they occured in-between our weather recording intervals... More about our weather records

Advertising

Stephenville weather history for previous 24 hours

 ConditionsComfort  
Time TempWeatherWind HumidityBarometerVisibility
10:30 AM
Mon, Mar 30
28 °FPassing clouds.3 mph43%30.03 "Hg15 mi
9:30 AM25 °FSunny.6 mph59%30.02 "Hg15 mi
8:30 AM19 °FSunny.7 mph68%30.03 "Hg15 mi
7:30 AM14 °FClear.5 mph85%30.03 "Hg15 mi
6:30 AM14 °FClear.5 mph85%30.03 "Hg15 mi
5:30 AM18 °FClear.3 mph79%30.02 "Hg15 mi
4:30 AM19 °FPassing clouds.2 mph73%30.01 "Hg15 mi
3:30 AM21 °FPassing clouds.8 mph80%30.01 "Hg15 mi
2:30 AM23 °FPassing clouds.10 mph86%30.01 "Hg15 mi
1:30 AM27 °FPassing clouds.12 mph86%30.01 "Hg15 mi
12:30 AM28 °FPassing clouds.15 mph74%30.00 "Hg15 mi
11:30 PM
Sun, Mar 29
28 °FPassing clouds.16 mph74%29.98 "Hg15 mi
10:30 PM28 °FPassing clouds.16 mph74%29.98 "Hg15 mi
9:30 PM27 °FPassing clouds.16 mph74%29.96 "Hg15 mi
8:30 PM27 °FPassing clouds.16 mph69%29.94 "Hg15 mi
7:30 PM27 °FScattered clouds.20 mph64%29.93 "Hg15 mi
6:30 PM27 °FPartly sunny.13 mph64%29.90 "Hg15 mi
5:30 PM28 °FBroken clouds.14 mph59%29.87 "Hg15 mi
4:30 PM27 °FScattered clouds.14 mph54%29.86 "Hg15 mi
3:30 PM28 °FBroken clouds.14 mph55%29.84 "Hg15 mi
2:30 PM28 °FBroken clouds.16 mph55%29.81 "Hg15 mi
1:30 PM28 °FPartly sunny.12 mph59%29.78 "Hg15 mi
12:30 PM27 °FBroken clouds.8 mph64%29.74 "Hg15 mi
11:30 AM27 °FBroken clouds.7 mph69%29.70 "Hg15 mi
Weather by CustomWeather, © 2015

See weather overviewHow to use our weather pages